TimeCST,TemperatureF,Dew PointF,Humidity,Sea Level PressureIn,VisibilityMPH,Wind Direction,Wind SpeedMPH,Gust SpeedMPH,PrecipitationIn,Events,Conditions,WindDirDegrees,DateUTC
12:53 AM,57.0,53.1,87,29.85,7.0,SSW,3.5,-,N/A,,Overcast,200,2012-12-08 06:53:00
1:37 AM,57.2,53.6,88,29.86,8.0,SW,6.9,-,N/A,,Overcast,230,2012-12-08 07:37:00
1:53 AM,57.0,53.1,87,29.86,8.0,SW,5.8,-,N/A,,Overcast,230,2012-12-08 07:53:00
2:53 AM,57.0,54.0,89,29.85,6.0,WSW,5.8,-,N/A,,Overcast,240,2012-12-08 08:53:00
3:53 AM,55.9,53.1,90,29.85,5.0,SSW,6.9,-,N/A,,Mostly Cloudy,200,2012-12-08 09:53:00
4:24 AM,55.4,53.6,94,29.86,5.0,WSW,4.6,-,N/A,,Overcast,240,2012-12-08 10:24:00
4:42 AM,55.4,53.6,94,29.87,5.0,NW,10.4,-,N/A,,Overcast,320,2012-12-08 10:42:00
5:12 AM,53.6,50.0,88,29.87,7.0,NNW,9.2,-,N/A,,Overcast,340,2012-12-08 11:12:00
5:53 AM,53.1,48.9,86,29.89,6.0,North,11.5,-,N/A,,Overcast,350,2012-12-08 11:53:00
6:19 AM,53.6,48.2,82,29.91,6.0,North,6.9,-,N/A,,Overcast,360,2012-12-08 12:19:00
6:48 AM,53.6,48.2,82,29.91,7.0,North,5.8,-,N/A,,Overcast,360,2012-12-08 12:48:00
6:53 AM,53.1,48.9,86,29.92,7.0,North,8.1,-,N/A,,Overcast,360,2012-12-08 12:53:00
7:53 AM,53.1,48.9,86,29.94,5.0,Calm,Calm,-,N/A,,Overcast,0,2012-12-08 13:53:00
8:00 AM,53.6,48.2,82,29.93,5.0,Calm,Calm,-,N/A,,Overcast,0,2012-12-08 14:00:00
8:28 AM,53.6,48.2,82,29.94,5.0,North,3.5,-,N/A,,Overcast,10,2012-12-08 14:28:00
8:53 AM,54.0,50.0,86,29.94,6.0,NE,3.5,-,N/A,,Overcast,40,2012-12-08 14:53:00
9:17 AM,55.4,50.0,82,29.94,7.0,NE,8.1,-,N/A,,Overcast,40,2012-12-08 15:17:00
9:48 AM,55.4,50.0,82,29.95,7.0,North,8.1,-,N/A,,Mostly Cloudy,10,2012-12-08 15:48:00
9:53 AM,55.0,50.0,83,29.95,7.0,North,9.2,-,N/A,,Overcast,360,2012-12-08 15:53:00
10:53 AM,53.1,48.0,83,29.97,8.0,North,9.2,-,N/A,,Overcast,360,2012-12-08 16:53:00
11:53 AM,53.1,48.0,83,29.95,10.0,North,6.9,-,N/A,,Overcast,10,2012-12-08 17:53:00
12:53 PM,52.0,48.0,86,29.93,6.0,NNE,9.2,-,N/A,,Overcast,20,2012-12-08 18:53:00
1:53 PM,53.1,46.9,80,29.93,10.0,North,9.2,-,N/A,,Overcast,10,2012-12-08 19:53:00
2:53 PM,53.1,46.9,80,29.93,10.0,North,8.1,-,N/A,,Overcast,10,2012-12-08 20:53:00
3:53 PM,52.0,46.9,83,29.93,10.0,NNE,10.4,-,N/A,,Overcast,20,2012-12-08 21:53:00
4:53 PM,51.1,46.9,86,29.94,10.0,NNE,10.4,-,N/A,,Overcast,30,2012-12-08 22:53:00
5:53 PM,50.0,46.0,86,29.96,10.0,NE,11.5,-,N/A,,Overcast,40,2012-12-08 23:53:00
6:13 PM,50.0,46.4,87,29.96,10.0,NE,9.2,-,N/A,,Overcast,40,2012-12-09 00:13:00
6:36 PM,50.0,46.4,87,29.96,10.0,NE,10.4,-,N/A,,Overcast,40,2012-12-09 00:36:00
6:53 PM,50.0,46.0,86,29.96,10.0,NE,6.9,-,N/A,,Overcast,40,2012-12-09 00:53:00
7:53 PM,48.9,46.0,90,29.96,9.0,ENE,5.8,-,0.00,,Overcast,60,2012-12-09 01:53:00
8:53 PM,50.0,46.0,86,29.95,8.0,ENE,9.2,-,N/A,,Overcast,70,2012-12-09 02:53:00
9:53 PM,50.0,46.0,86,29.94,9.0,East,8.1,-,N/A,,Overcast,80,2012-12-09 03:53:00
10:53 PM,50.0,46.0,86,29.94,8.0,East,8.1,-,N/A,,Overcast,80,2012-12-09 04:53:00
11:53 PM,50.0,46.0,86,29.93,7.0,East,5.8,-,N/A,,Overcast,90,2012-12-09 05:53:00